KANOPUS-V 1

Last updated on Tue Nov 19 2024 00:02:26 GMT+0000 (Coordinated Universal Time)

1 38707U 12039A 24323.69842208 .07642492 26635-5 86566-3 0 9998 2 38707 97.4796 272.2573 0005281 150.3684 298.6429 16.37059857685392

Satellite not in orbit

KANOPUS-V 1